Salt Lake City, UT

9:47 AM MST on December 17, 2017 (GMT -0700)
Salt Lake City International

Weather History for KSLC - April, 2013

Change the Weather History Date:

Monday, April 29, 2013

  Actual Average Record
Temperature  
Mean Temperature 61 °F 54 °F  
Max Temperature 75 °F 66 °F 89 °F (2007)
Min Temperature 47 °F 43 °F 29 °F (1990)
Degree Days  
Heating Degree Days 4 11  
Month to date heating degree days 446 427  
Since 1 July heating degree days 5304 5345  
Cooling Degree Days 0 0  
Month to date cooling degree days 0 0  
Year to date cooling degree days 0 0  
Growing Degree Days 10 (Base 50)    
Moisture  
Dew Point 34 °F    
Average Humidity 42    
Maximum Humidity 63    
Minimum Humidity 20    
Precipitation  
Precipitation 0.00 in 0.07 in 0.91 in (1951)
Month to date precipitation 1.96 1.92  
Year to date precipitation 4.87 6.21  
Snow  
Snow 0.00 in 0.00 in 5.80 in (1967)
Month to date snowfall T 3.9  
Since 1 July snowfall 69.8 55.8  
Snow Depth 0.00 in    
Sea Level Pressure  
Sea Level Pressure 29.76 in    
Wind  
Wind Speed 5 mph (NW)    
Max Wind Speed 10 mph    
Max Gust Speed 14 mph    
Visibility 10 miles    
Events      
T = Trace of Precipitation, MM = Missing Value Source: NWS Daily Summary

Daily Weather History Graph

Daily Weather History Graph

Search for Another Location

Airport or City:

Trip Planner

Search our weather history database for the weather conditions in past years. The results will help you decide how hot, cold, wet, or windy it might be!

Date:

Astronomy

Apr. 29, 2013 Rise Set
Actual Time 6:28 AM MDT 8:22 PM MDT
Civil Twilight 5:59 AM MDT 8:52 PM MDT
Nautical Twilight 5:23 AM MDT 9:28 PM MDT
Astronomical Twilight 4:44 AM MDT 10:07 PM MDT
Moon No Moon Rise 9:52 AM MDT (4/29)
Length of Visible Light 14h 53m
Length of Day
13h 53m
Waning Gibbous, 79% of the Moon is Illuminated
Apr 29
Waning Gibbous
May 2
Last Quarter
May 9
New
May 17
First Quarter
May 24
Full

Hourly Weather History & Observations

Time (MDT) Temp. Dew Point Humidity Pressure Visibility Wind Dir Wind Speed Gust Speed Precip Events Conditions
12:53 AM 53.1 °F 39.0 °F 59% 29.87 in 10.0 mi WNW 6.9 mph - N/A   Scattered Clouds
1:53 AM 55.0 °F 37.9 °F 53% 29.87 in 10.0 mi Calm Calm - N/A   Scattered Clouds
2:53 AM 53.1 °F 39.0 °F 59% 29.87 in 10.0 mi South 4.6 mph - N/A   Partly Cloudy
3:53 AM 52.0 °F 37.9 °F 59% 29.86 in 10.0 mi SW 3.5 mph - N/A   Partly Cloudy
4:53 AM 52.0 °F 36.0 °F 54% 29.87 in 10.0 mi SE 5.8 mph - N/A   Partly Cloudy
5:53 AM 51.1 °F 34.0 °F 52% 29.87 in 10.0 mi ESE 3.5 mph - N/A   Scattered Clouds
6:53 AM 48.0 °F 35.1 °F 61% 29.88 in 10.0 mi SE 4.6 mph - N/A   Scattered Clouds
7:53 AM 55.0 °F 37.0 °F 51% 29.88 in 10.0 mi SSE 6.9 mph - N/A   Scattered Clouds
8:53 AM 61.0 °F 36.0 °F 39% 29.87 in 10.0 mi Calm Calm - N/A   Mostly Cloudy
9:53 AM 66.0 °F 33.1 °F 29% 29.87 in 10.0 mi Calm Calm - N/A   Scattered Clouds
10:53 AM 68.0 °F 30.9 °F 25% 29.86 in 10.0 mi WNW 6.9 mph - N/A   Mostly Cloudy
11:53 AM 70.0 °F 28.0 °F 21% 29.83 in 10.0 mi Variable 4.6 mph - N/A   Mostly Cloudy
12:53 PM 71.1 °F 27.0 °F 19% 29.81 in 10.0 mi Variable 3.5 mph - N/A   Mostly Cloudy
1:53 PM 71.1 °F 28.9 °F 21% 29.77 in 10.0 mi Calm Calm - N/A   Mostly Cloudy
2:53 PM 72.0 °F 30.0 °F 21% 29.73 in 10.0 mi Variable 4.6 mph - N/A   Mostly Cloudy
3:53 PM 72.0 °F 33.1 °F 24% 29.71 in 10.0 mi NNE 6.9 mph - N/A   Mostly Cloudy
4:53 PM 72.0 °F 32.0 °F 23% 29.66 in 10.0 mi North 3.5 mph - N/A   Mostly Cloudy
5:53 PM 73.9 °F 30.0 °F 20% 29.63 in 10.0 mi Calm Calm - N/A   Mostly Cloudy
6:53 PM 73.9 °F 30.9 °F 21% 29.62 in 10.0 mi Calm Calm - N/A   Mostly Cloudy
7:53 PM 71.1 °F 32.0 °F 24% 29.60 in 10.0 mi North 3.5 mph - N/A   Mostly Cloudy
8:53 PM 70.0 °F 32.0 °F 25% 29.58 in 10.0 mi North 3.5 mph - N/A   Mostly Cloudy
9:53 PM 66.9 °F 34.0 °F 30% 29.58 in 10.0 mi West 4.6 mph - N/A   Mostly Cloudy
10:53 PM 59.0 °F 42.1 °F 53% 29.62 in 10.0 mi North 6.9 mph - N/A   Scattered Clouds
11:53 PM 62.1 °F 37.0 °F 39% 29.64 in 10.0 mi NW 10.4 mph - N/A   Scattered Clouds